Date String (YYYY-MM-DD hh:mm:ss) UTC,Instrument flags,Ambient pressure (hPa),Sample flow (lpm),Bypass flow (lpm),Sample temperature (°C),Ambient temperature (°C),ASC tube jacket temperature (°C),LED temperature (°C),Box temperature (°C),Sample RH (%),Span deviation,Mass concentration (μg/m³),Mass concentration (μg/m³),Mass concentration (μg/m³)
DateTimeUTC,F1_M11,P_M11,Q1_M11,Q2_M11,T1_M11,T2_M11,T3_M11,T4_M11,T5_M11,U1_M11,ZSPAN_M11,X0_M11,X2_M11,X1_M11
2021-11-21 17:00:00,,0835.9,4.99,0.00,22.9,22.3,00.0,31.9,24.7,14.2,0000.0,0003.91,0002.82,0002.31
2021-11-21 17:01:00,,0835.9,5.01,0.00,22.9,22.3,00.0,31.9,24.7,14.1,0000.0,0003.94,0002.82,0002.33
2021-11-21 17:02:00,,0835.8,4.99,0.00,22.9,22.3,00.0,31.9,24.7,14.1,0000.0,0004.07,0002.82,0002.33
2021-11-21 17:03:00,,0835.8,5.01,0.00,22.9,22.3,00.0,31.9,24.7,14.0,0000.0,0004.67,0002.80,0002.33
2021-11-21 17:04:00,,0835.9,5.00,0.00,22.9,22.3,00.0,31.9,24.7,14.0,0000.0,0005.91,0002.80,0002.33
2021-11-21 17:05:00,,0835.9,5.00,0.00,22.9,22.3,00.0,31.9,24.7,13.3,0000.0,0006.00,0002.74,0002.30
2021-11-21 17:06:00,,0835.9,5.00,0.00,22.9,22.3,00.0,31.9,24.7,13.5,0000.0,0005.99,0002.64,0002.24
2021-11-21 17:07:00,,0835.8,5.00,0.00,22.9,22.3,00.0,31.9,24.7,13.6,0000.0,0006.05,0002.58,0002.19
2021-11-21 17:08:00,,0835.9,5.00,0.00,22.9,22.4,00.0,31.9,24.7,12.4,0000.0,0006.41,0002.45,0002.10
2021-11-21 17:09:00,,0835.8,4.99,0.00,22.9,22.4,00.0,31.9,24.7,11.6,0000.0,0007.27,0002.31,0002.00
2021-11-21 17:10:00,,0835.8,5.00,0.00,22.9,22.3,00.0,31.9,24.7,11.4,0000.0,0007.49,0002.22,0001.92
2021-11-21 17:11:00,,0835.8,4.99,0.00,22.9,22.3,00.0,31.9,24.7,11.5,0000.0,0007.97,0002.13,0001.83
2021-11-21 17:12:00,,0835.8,5.01,0.00,22.9,22.3,00.0,31.9,24.7,11.3,0000.0,0007.85,0002.01,0001.75
2021-11-21 17:13:00,,0835.7,4.99,0.00,22.9,22.3,00.0,31.9,24.7,11.3,0000.0,0008.58,0001.87,0001.66
2021-11-21 17:14:00,,0835.7,5.00,0.00,22.9,22.3,00.0,31.9,24.7,11.4,0000.0,0008.24,0001.78,0001.59
2021-11-21 17:15:00,,0835.7,5.01,0.00,22.9,22.3,00.0,31.9,24.7,11.4,0000.0,0007.75,0001.67,0001.50
2021-11-21 17:16:00,,0835.7,4.99,0.00,22.9,22.3,00.0,31.9,24.7,11.4,0000.0,0007.38,0001.59,0001.43
2021-11-21 17:17:00,,0835.7,5.00,0.00,22.9,22.3,00.0,31.9,24.7,11.3,0000.0,0007.25,0001.55,0001.37
2021-11-21 17:18:00,,0835.7,5.01,0.00,22.9,22.3,00.0,31.9,24.6,11.2,0000.0,0007.19,0001.53,0001.33
2021-11-21 17:19:00,,0835.7,4.99,0.00,22.9,22.3,00.0,31.9,24.7,11.4,0000.0,0007.27,0001.52,0001.31
2021-11-21 17:20:00,,0835.6,5.00,0.00,22.9,22.3,00.0,31.9,24.7,11.5,0000.0,0005.74,0001.55,0001.32
2021-11-21 17:21:00,,0835.6,5.00,0.00,22.9,22.3,00.0,31.9,24.7,11.6,0000.0,0005.42,0001.55,0001.33
2021-11-21 17:22:00,,0835.7,5.00,0.00,22.9,22.3,00.0,31.9,24.7,11.8,0000.0,0004.23,0001.55,0001.34
2021-11-21 17:23:00,,0835.6,4.99,0.00,22.9,22.3,00.0,31.9,24.7,11.5,0000.0,0004.27,0001.57,0001.36
2021-11-21 17:24:00,,0835.6,5.00,0.00,22.9,22.3,00.0,31.9,24.6,11.7,0000.0,0003.05,0001.64,0001.39
2021-11-21 17:25:00,,0835.6,4.99,0.00,22.9,22.3,00.0,31.9,24.7,11.9,0000.0,0002.75,0001.69,0001.42
2021-11-21 17:26:00,,0835.6,5.02,0.00,22.9,22.4,00.0,31.9,24.7,12.0,0000.0,0002.58,0001.72,0001.47
2021-11-21 17:27:00,,0835.6,5.00,0.00,23.0,22.4,00.0,32.0,24.7,12.1,0000.0,0002.70,0001.80,0001.54
2021-11-21 17:28:00,,0835.6,5.00,0.00,23.0,22.4,00.0,32.0,24.8,12.2,0000.0,0002.83,0001.89,0001.60
2021-11-21 17:29:00,,0835.5,5.00,0.00,23.0,22.4,00.0,32.0,24.8,12.2,0000.0,0002.79,0001.95,0001.66
2021-11-21 17:30:00,,0835.5,4.99,0.00,23.0,22.4,00.0,32.0,24.8,12.3,0000.0,0002.95,0002.00,0001.70
2021-11-21 17:31:00,,0835.5,5.01,0.00,23.0,22.5,00.0,32.0,24.8,12.1,0000.0,0003.00,0002.04,0001.75
2021-11-21 17:32:00,,0835.5,4.99,0.00,23.0,22.5,00.0,32.0,24.9,11.8,0000.0,0003.15,0002.11,0001.80
2021-11-21 17:33:00,,0835.5,5.00,0.00,23.1,22.5,00.0,32.0,24.9,11.9,0000.0,0003.22,0002.14,0001.82
2021-11-21 17:34:00,,0835.5,5.00,0.00,23.1,22.5,00.0,32.0,24.9,11.9,0000.0,0003.39,0002.21,0001.85
2021-11-21 17:35:00,,0835.5,5.00,0.00,23.1,22.5,00.0,32.0,24.9,11.9,0000.0,0003.47,0002.23,0001.88
2021-11-21 17:36:00,,0835.5,4.99,0.00,23.1,22.6,00.0,32.0,24.9,11.8,0000.0,0003.48,0002.24,0001.90
2021-11-21 17:37:00,,0835.4,5.00,0.00,23.1,22.5,00.0,32.0,24.9,11.7,0000.0,0003.45,0002.24,0001.90
2021-11-21 17:38:00,,0835.4,5.01,0.00,23.1,22.5,00.0,32.0,24.9,11.6,0000.0,0003.37,0002.21,0001.89
2021-11-21 17:39:00,,0835.4,5.00,0.00,23.1,22.6,00.0,32.1,24.9,11.6,0000.0,0003.39,0002.18,0001.88
2021-11-21 17:40:00,,0835.3,5.00,0.00,23.1,22.6,00.0,32.1,24.9,11.5,0000.0,0003.35,0002.14,0001.87
2021-11-21 17:41:00,,0835.4,5.01,0.00,23.1,22.6,00.0,32.1,24.9,11.5,0000.0,0003.16,0002.12,0001.85
2021-11-21 17:42:00,,0835.3,4.99,0.00,23.2,22.6,00.0,32.1,25.0,11.4,0000.0,0003.13,0002.12,0001.84
2021-11-21 17:43:00,,0835.4,4.99,0.00,23.2,22.6,00.0,32.1,25.0,11.2,0000.0,0003.04,0002.09,0001.82
2021-11-21 17:44:00,,0835.3,5.00,0.00,23.2,22.6,00.0,32.1,25.0,11.2,0000.0,0003.02,0002.10,0001.82
2021-11-21 17:45:00,,0835.3,5.01,0.00,23.2,22.6,00.0,32.1,25.0,11.3,0000.0,0002.87,0002.06,0001.82
2021-11-21 17:46:00,,0835.3,4.99,0.00,23.2,22.6,00.0,32.1,25.0,11.3,0000.0,0002.79,0002.02,0001.80
2021-11-21 17:47:00,,0835.2,5.02,0.00,23.2,22.6,00.0,32.2,25.0,11.0,0000.0,0002.73,0001.99,0001.78
2021-11-21 17:48:00,,0835.2,4.99,0.00,23.2,22.6,00.0,32.2,25.0,11.0,0000.0,0003.97,0002.04,0001.77
2021-11-21 17:49:00,,0835.2,5.00,0.00,23.2,22.7,00.0,32.2,25.0,11.0,0000.0,0006.22,0002.08,0001.77
2021-11-21 17:50:00,,0835.2,5.02,0.00,23.2,22.7,00.0,32.2,25.0,10.8,0000.0,0007.62,0002.09,0001.76
2021-11-21 17:51:00,,0835.2,4.99,0.00,23.3,22.7,00.0,32.2,25.0,11.0,0000.0,0007.68,0002.11,0001.76
2021-11-21 17:52:00,,0835.2,5.01,0.00,23.3,22.7,00.0,32.2,25.0,10.8,0000.0,0007.63,0002.09,0001.76
2021-11-21 17:53:00,,0835.2,5.00,0.00,23.3,22.7,00.0,32.2,25.0,10.8,0000.0,0007.67,0002.09,0001.76
2021-11-21 17:54:00,,0835.2,4.98,0.00,23.3,22.7,00.0,32.2,25.0,10.3,0000.0,0007.99,0002.09,0001.75
2021-11-21 17:55:00,,0835.2,5.02,0.00,23.3,22.7,00.0,32.2,25.0,10.1,0000.0,0008.29,0002.07,0001.72
2021-11-21 17:56:00,,0835.1,4.99,0.00,23.3,22.7,00.0,32.2,25.0,10.1,0000.0,0008.62,0002.03,0001.69
2021-11-21 17:57:00,,0835.1,5.01,0.00,23.3,22.7,00.0,32.2,25.0,10.3,0000.0,0009.42,0002.01,0001.67
2021-11-21 17:58:00,,0835.0,4.99,0.00,23.3,22.7,00.0,32.2,25.1,10.1,0000.0,0009.52,0002.01,0001.65
2021-11-21 17:59:00,,0835.0,5.00,0.00,23.3,22.7,00.0,32.3,25.1,10.1,0000.0,0009.09,0001.95,0001.61
